Погода в Кочемарах

Россия / Рязанская область     54°50′08″N   40°57′51″E
темп.,
°C
ветер,
м/с
пор.,
м/с
влажн.,
%
обл.,
%
осадки,
мм/ч
давл.,
гПа
погр.,
м
25 февраля, чт
чт2500:00−17ю5995100 0.4 1031412
03:00−15ююз51095100 0.6 1028415
06:00−13ююз51095100 1.4 1024421
09:00−11ююз61195100 3.1 1020423
12:00−6ююз61196100 3.5 1015386
15:00+1зюз49100100 5.3 1013263
18:00+2зсз412100100 0.1 1012340
21:00+1зсз41099100 0.1 1013325
26 февраля, пт
пт2600:00+1зсз4898100 0.0 1013277
03:00+1зюз2699100 0.0 1013179
06:00+1юз37100100 0.1 1011168
09:00+1зюз410100100 1.0 1010270
12:00+2зюз410100100 0.5 1007259
15:00+2зюз513100100 0.9 1004390
18:00+2з614100100 0.9 1003448
21:00+2з51595100 1.0 1003764
27 февраля, сб
сб2700:00+1з61489100 0.1 1002884
03:00+1з6149199 0.1 1002770
06:00−1з6148974 0.0 1000617
09:00+1з7138884 0.0 1001693
12:00+1зсз6129785 0.0 1002723
15:000сз5109992 0.3 1003601
18:000сз3798100 0.1 1005329
21:000сз3798100 0.5 1007308
28 февраля, вс
вс2800:00−1сз3698100 0.8 1008261
03:00−3ссз259795 1.1 1009154
06:00−4с379790 0.2 1011311
09:00−5с389386 0.2 1012389
12:00−3с478993 0.0 1014620
15:00−2ссз478896 0.1 1015866
18:00−5с369196 0.1 1017194
21:00−6с379693 0.3 1020270
1 марта, пн
пн100:00−9с2795100 0.1 1022241
03:00−11ссз349678 0.1 102474
06:00−11ссз239664 0.0 102630
09:00−8сз259566 0.1 1027185
12:00−4сз358878 0.0 1028643
15:00−2з358587 0.1 1028697
18:00−3з488999 0.0 1028437
21:00−5зюз499380 0.0 1027214